Вернуться в каталог

SCOUT A DEB

АктивенPO
NORAD 2989·DEBRIS·🇺🇸 United States

Запущен Jan 28, 1966 с Vandenberg Space Force Base

Loading…

Ближайшие Пролёты (ближайшие 24 часа)

TLE

СвежийSource: Space-Track

Эпоха: Sep 13, 2026, 11:59 UTC

1 02989U 66005F   26256.49975458  .00000312  00000-0  19251-3 0  9994
2 02989  89.6552 280.9644 0107182 335.2936  24.3130 14.00727384  9354

Отслеживайте SCOUT A DEB в реальном времени с AllMySat

Download on the App Store